DW9776 Weather Reports


time (UTC)temp
C
wind
direction
speed
KPH
gust
KPH
rain 1hr
cm
rain 24hr
cm
rain mn
cm
humidity
%
barometer
mb
20260507212400 10 223 3.2 4.8 0.00 0.00 0.00 80 1016.2
20260507211902 10 51 3.2 6.4 0.00 0.00 0.00 80 1016.2
20260507211357 10 145 1.6 6.4 0.00 0.00 0.00 80 1016.2
20260507210856 10 130 1.6 6.4 0.00 0.00 0.00 80 1016.3
20260507210617 10 124 1.6 4.8 0.00 0.00 0.00 80 1016.4
20260507205852 10 35 1.6 4.8 0.00 0.00 0.00 80 1016.4
20260507205348 10 76 1.6 4.8 0.00 0.00 0.00 80 1016.3
20260507204844 11 152 1.6 6.4 0.00 0.00 0.00 79 1016.4
20260507204827 11 269 3.2 6.4 0.00 0.00 0.00 79 1016.3
20260507203840 11 195 1.6 6.4 0.00 0.00 0.00 78 1016.3
20260507203340 11 117 3.2 6.4 0.00 0.00 0.00 78 1016.3
20260507202836 11 269 1.6 6.4 0.00 0.00 0.00 77 1016.2
20260507202601 11 13 1.6 12.9 0.00 0.00 0.00 76 1016.1
20260507201828 11 102 3.2 12.9 0.00 0.00 0.00 75 1016.1
20260507201323 11 305 3.2 9.7 0.00 0.00 0.00 74 1016.1
20260507201312 12 105 1.6 8.0 0.00 0.00 0.00 72 1016.0
20260507200319 12 89 3.2 8.0 0.00 0.00 0.00 72 1015.9
20260507195815 12 76 3.2 6.4 0.00 0.00 0.00 72 1015.8
20260507195540 12 135 3.2 6.4 0.00 0.00 0.00 72 1015.7
20260507194812 12 89 3.2 6.4 0.00 0.00 0.00 71 1015.8
20260507194312 12 223 3.2 6.4 0.00 0.00 0.00 71 1015.7
20260507194035 12 135 3.2 6.4 0.00 0.00 0.00 71 1015.7
20260507193307 12 145 3.2 6.4 0.00 0.00 0.00 71 1015.6
20260507192803 12 105 3.2 4.8 0.00 0.00 0.00 70 1015.6
20260507192306 12 135 1.6 4.8 0.00 0.00 0.00 70 1015.6
20260507191800 12 135 3.2 4.8 0.00 0.00 0.00 69 1015.6
20260507191256 12 253 1.6 8.0 0.00 0.00 0.00 69 1015.6
20260507190756 12 223 1.6 8.0 0.00 0.00 0.00 69 1015.6
20260507190251 12 1 1.6 6.4 0.00 0.00 0.00 69 1015.6
20260507190233 12 218 1.6 6.4 0.00 0.00 0.00 68 1015.6
20260507185242 12 79 1.6 8.0 0.00 0.00 0.00 68 1015.6
20260507185005 12 295 3.2 8.0 0.00 0.00 0.00 68 1015.5
20260507184238 12 67 1.6 6.4 0.00 0.00 0.00 68 1015.5
20260507183734 12 223 3.2 8.0 0.00 0.00 0.00 68 1015.5
20260507183235 13 240 1.6 8.0 0.00 0.00 0.00 67 1015.5
20260507183214 13 1 1.6 9.7 0.00 0.00 0.00 67 1015.5
20260507182230 13 9 3.2 9.7 0.00 0.00 0.00 66 1015.4
20260507181726 13 149 3.2 9.7 0.00 0.00 0.00 66 1015.4
20260507181712 13 102 1.6 12.9 0.00 0.00 0.00 66 1015.3
20260507180722 13 216 4.8 14.5 0.00 0.00 0.00 65 1015.3
20260507180218 13 252 4.8 14.5 0.00 0.00 0.00 65 1015.2
20260507175719 13 250 4.8 12.9 0.00 0.00 0.00 65 1015.3
20260507175439 13 269 3.2 9.7 0.00 0.00 0.00 66 1015.4
20260507174714 13 236 4.8 9.7 0.00 0.00 0.00 65 1015.3
20260507174210 13 252 3.2 24.1 0.00 0.00 0.00 66 1015.3
20260507173710 13 145 3.2 14.5 0.00 0.00 0.00 67 1015.4
20260507173437 13 39 4.8 12.9 0.00 0.00 0.00 67 1015.3
20260507172702 13 223 4.8 12.9 0.00 0.00 0.00 66 1015.4
20260507172203 13 108 3.2 12.9 0.00 0.00 0.00 66 1015.4
20260507171658 13 230 3.2 12.9 0.00 0.00 0.00 67 1015.4
20260507171158 13 1 3.2 16.1 0.00 0.00 0.00 67 1015.5
20260507170653 13 187 4.8 16.1 0.00 0.00 0.00 67 1015.3
20260507170149 13 46 6.4 16.1 0.00 0.00 0.00 66 1015.3
20260507165650 13 126 3.2 9.7 0.00 0.00 0.00 66 1015.3
20260507165406 13 46 4.8 9.7 0.00 0.00 0.00 66 1015.4
20260507164645 13 314 3.2 17.7 0.00 0.00 0.00 65 1015.3
20260507164141 13 223 6.4 17.7 0.00 0.00 0.00 65 1015.4
20260507163905 13 89 3.2 9.7 0.00 0.00 0.00 65 1015.4
20260507163137 13 206 3.2 9.7 0.00 0.00 0.00 64 1015.3
20260507162637 13 28 3.2 12.9 0.00 0.00 0.00 63 1015.3
20260507162133 13 248 6.4 12.9 0.00 0.00 0.00 62 1015.3
20260507161858 13 72 3.2 12.9 0.00 0.00 0.00 62 1015.3
20260507161130 13 223 3.2 11.3 0.00 0.00 0.00 61 1015.3
20260507160620 14 329 4.8 11.3 0.00 0.00 0.00 61 1015.3
20260507160115 14 314 3.2 12.9 0.00 0.00 0.00 61 1015.1
20260507155611 14 269 4.8 12.9 0.00 0.00 0.00 59 1015.2
20260507155329 15 135 4.8 14.5 0.00 0.00 0.00 60 1015.2
20260507154601 15 243 6.4 17.7 0.00 0.00 0.00 61 1015.2
20260507154057 14 82 4.8 17.7 0.00 0.00 0.00 60 1015.2
20260507153553 15 233 4.8 14.5 0.00 0.00 0.00 58 1015.3
20260507153053 15 250 4.8 27.4 0.00 0.00 0.00 56 1015.3
20260507152553 15 158 8.0 27.4 0.00 0.00 0.00 57 1015.2
20260507152307 15 259 3.2 14.5 0.00 0.00 0.00 57 1015.2
20260507151551 15 203 6.4 19.3 0.00 0.00 0.00 56 1015.2
20260507151047 15 274 6.4 19.3 0.00 0.00 0.00 55 1015.2
20260507150546 16 191 6.4 20.9 0.00 0.00 0.00 53 1015.2
20260507150042 15 213 9.7 20.9 0.00 0.00 0.00 53 1015.2
20260507145803 16 216 6.4 17.7 0.00 0.00 0.00 54 1015.2
20260507145301 16 236 6.4 14.5 0.00 0.00 0.00 55 1015.3
20260507144534 15 46 4.8 12.9 0.00 0.00 0.00 57 1015.3
20260507144034 15 260 6.4 17.7 0.00 0.00 0.00 56 1015.3
20260507143529 15 98 6.4 17.7 0.00 0.00 0.00 57 1015.4
20260507143025 14 152 6.4 17.7 0.00 0.00 0.00 59 1015.5
20260507142522 14 269 6.4 14.5 0.00 0.00 0.00 58 1015.6
20260507142238 14 303 6.4 16.1 0.00 0.00 0.00 58 1015.6
20260507141516 15 89 3.2 19.3 0.00 0.00 0.00 58 1015.6
20260507141012 15 260 4.8 22.5 0.00 0.00 0.00 58 1015.7
20260507140512 15 76 4.8 22.5 0.00 0.00 0.00 57 1015.7
20260507140009 15 82 4.8 12.9 0.00 0.00 0.00 58 1015.7
20260507135508 14 142 6.4 16.1 0.00 0.00 0.00 58 1015.7
20260507135005 14 238 4.8 16.1 0.00 0.00 0.00 60 1015.8
20260507134507 14 257 3.2 16.1 0.00 0.00 0.00 62 1015.8
20260507134001 14 82 4.8 16.1 0.00 0.00 0.00 61 1015.7
20260507133456 14 76 6.4 16.1 0.00 0.00 0.00 63 1015.8
20260507132952 13 299 4.8 14.5 0.00 0.00 0.00 65 1015.8
20260507132453 13 60 3.2 14.5 0.00 0.00 0.00 65 1015.9
20260507131947 13 271 4.8 14.5 0.00 0.00 0.00 65 1015.8
20260507131705 13 89 3.2 14.5 0.00 0.00 0.00 64 1015.9
20260507130939 13 0 4.8 12.9 0.00 0.00 0.00 64 1015.8
20260507130434 13 1 3.2 12.9 0.00 0.00 0.00 64 1016.0
20260507125934 13 223 4.8 11.3 0.00 0.00 0.00 63 1015.9
20260507125430 13 63 4.8 11.3 0.00 0.00 0.00 63 1016.0
20260507124931 13 120 3.2 11.3 0.00 0.00 0.00 64 1016.0
20260507124426 13 75 3.2 11.3 0.00 0.00 0.00 65 1016.2
20260507124410 12 108 3.2 9.7 0.00 0.00 0.00 65 1016.2
20260507123422 12 279 3.2 8.0 0.00 0.00 0.00 65 1016.3
20260507122918 12 240 4.8 9.7 0.00 0.00 0.00 65 1016.3
20260507122420 12 223 4.8 9.7 0.00 0.00 0.00 65 1016.3
20260507121916 12 53 3.2 8.0 0.00 0.00 0.00 67 1016.3
20260507121412 12 127 3.2 6.4 0.00 0.00 0.00 66 1016.4
20260507120910 11 259 3.2 11.3 0.00 0.00 0.00 67 1016.3
20260507120406 11 245 6.4 17.7 0.00 0.00 0.00 66 1016.4
20260507115902 11 124 4.8 17.7 0.00 0.00 0.00 66 1016.4
20260507115402 11 178 3.2 14.5 0.00 0.00 0.00 67 1016.4
20260507114857 11 314 1.6 11.3 0.00 0.00 0.00 68 1016.5
20260507114354 11 258 3.2 11.3 0.00 0.00 0.00 67 1016.5
20260507113848 11 201 3.2 12.9 0.00 0.00 0.00 67 1016.4
20260507113348 11 228 1.6 12.9 0.00 0.00 0.00 66 1016.4
20260507112844 11 260 4.8 12.9 0.00 0.00 0.00 64 1016.4
20260507112345 12 269 4.8 11.3 0.00 0.00 0.00 64 1016.4
20260507111839 12 28 3.2 9.7 0.00 0.00 0.00 65 1016.4
20260507111340 12 46 4.8 11.3 0.00 0.00 0.00 64 1016.4
20260507110836 12 248 6.4 11.3 0.00 0.00 0.00 64 1016.4
20260507110337 12 199 3.2 11.3 0.00 0.00 0.00 64 1016.4
20260507105832 12 1 4.8 11.3 0.00 0.00 0.00 63 1016.3
20260507105333 12 240 3.2 16.1 0.00 0.00 0.00 65 1016.4
20260507104828 12 209 6.4 16.1 0.00 0.00 0.00 64 1016.3
20260507104329 12 40 4.8 12.9 0.00 0.00 0.00 64 1016.3
20260507103827 13 213 3.2 11.3 0.00 0.00 0.00 64 1016.3
20260507103538 13 269 3.2 11.3 0.00 0.00 0.00 64 1016.3
20260507102820 13 145 3.2 12.9 0.00 0.00 0.00 62 1016.2
20260507102316 12 300 4.8 12.9 0.00 0.00 0.00 63 1016.2
20260507101817 12 72 3.2 9.7 0.00 0.00 0.00 64 1016.0
20260507101312 12 129 3.2 9.7 0.00 0.00 0.00 64 1016.0
20260507100814 13 246 3.2 9.7 0.00 0.00 0.00 63 1016.0
20260507100310 13 303 3.2 17.7 0.00 0.00 0.00 63 1016.0
20260507095806 13 231 3.2 17.7 0.00 0.00 0.00 65 1016.0
20260507095306 12 272 3.2 12.9 0.00 0.00 0.00 65 1016.1
20260507094801 12 250 6.4 12.9 0.00 0.00 0.00 66 1016.2
20260507094301 12 269 3.2 11.3 0.00 0.00 0.00 68 1016.2
20260507093756 12 240 4.8 12.9 0.00 0.00 0.00 66 1016.2
20260507093257 12 39 6.4 12.9 0.00 0.00 0.00 67 1016.2
20260507092753 12 107 4.8 11.3 0.00 0.00 0.00 67 1016.2
20260507092518 12 102 3.2 11.3 0.00 0.00 0.00 67 1016.3
20260507091749 12 259 3.2 11.3 0.00 0.00 0.00 68 1016.2
20260507091244 11 56 4.8 11.3 0.00 0.00 0.00 67 1016.3
20260507090745 11 140 3.2 11.3 0.00 0.00 0.00 68 1016.4
20260507090240 11 89 4.8 9.7 0.00 0.00 0.00 68 1016.4
20260507085741 11 197 3.2 11.3 0.00 0.00 0.00 69 1016.4
20260507085727 11 223 3.2 11.3 0.00 0.00 0.00 70 1016.4
20260507084953 11 259 4.8 11.3 0.00 0.00 0.00 69 1016.5
20260507084232 11 117 3.2 9.7 0.00 0.00 0.00 71 1016.6
20260507083732 10 83 4.8 9.7 0.00 0.00 0.00 71 1016.6
20260507083229 10 89 1.6 11.3 0.00 0.00 0.00 72 1016.6
20260507082728 10 46 3.2 11.3 0.00 0.00 0.00 72 1016.6
20260507082225 10 127 3.2 6.4 0.00 0.00 0.00 73 1016.6
20260507081945 10 23 3.2 6.4 0.00 0.00 0.00 73 1016.6
20260507081216 9 76 3.2 8.0 0.00 0.00 0.00 75 1016.6
20260507080718 9 70 3.2 12.9 0.00 0.00 0.00 76 1016.7
20260507080214 8 135 3.2 12.9 0.00 0.00 0.00 79 1016.7
20260507075712 8 152 1.6 9.7 0.00 0.00 0.00 82 1016.8
20260507075208 7 206 3.2 8.0 0.00 0.00 0.00 84 1016.8
20260507074709 7 206 1.6 4.8 0.00 0.00 0.00 86 1016.9
20260507074204 7 56 0.0 4.8 0.00 0.00 0.00 87 1016.9
20260507073701 6 53 0.0 4.8 0.00 0.00 0.00 88 1016.9
20260507073156 6 1 3.2 4.8 0.00 0.00 0.00 88 1016.9
20260507072652 6 28 3.2 4.8 0.00 0.00 0.00 89 1016.8
20260507072146 6 51 3.2 4.8 0.00 0.00 0.00 89 1016.8
20260507071643 6 28 0.0 3.2 0.00 0.00 0.00 89 1016.9
20260507071138 6 269 1.6 4.8 0.00 0.00 0.00 90 1016.9
20260507070636 5 23 3.2 4.8 0.00 0.00 0.00 90 1016.9
20260507070133 5 28 1.6 4.8 0.00 0.00 0.00 90 1016.8
20260507065629 5 35 1.6 4.8 0.00 0.00 0.00 90 1016.9
20260507065130 5 63 1.6 3.2 0.00 0.00 0.00 90 1016.9
20260507064626 5 40 1.6 3.2 0.00 0.00 0.00 90 1016.9
20260507064127 5 35 1.6 3.2 0.00 0.00 0.00 90 1016.9
20260507063616 5 223 0.0 3.2 0.00 0.00 0.00 90 1016.9
20260507063340 5 223 0.0 4.8 0.00 0.00 0.00 91 1017.0
20260507062612 5 28 1.6 4.8 0.00 0.00 0.00 91 1017.0
20260507062109 5 331 3.2 3.2 0.00 0.00 0.00 91 1017.0
20260507061609 5 20 1.6 3.2 0.00 0.00 0.00 91 1017.0
20260507061109 5 46 1.6 3.2 0.00 0.00 0.00 91 1017.0
20260507060604 4 89 0.0 1.6 0.00 0.00 0.00 91 1017.0
20260507060100 4 250 0.0 1.6 0.00 0.00 0.00 91 1017.1
20260507055825 4 46 0.0 3.2 0.00 0.00 0.00 91 1017.1
20260507055057 4 28 1.6 3.2 0.00 0.00 0.00 91 1017.1
20260507054553 4 1 0.0 3.2 0.00 0.00 0.00 91 1017.1
20260507054047 4 46 0.0 3.2 0.00 0.00 0.00 90 1017.1
20260507053547 4 46 0.0 3.2 0.00 0.00 0.00 90 1017.1
20260507053045 4 135 1.6 3.2 0.00 0.00 0.00 90 1017.1
20260507052756 4 46 1.6 3.2 0.00 0.00 0.00 90 1017.2
20260507052040 4 35 1.6 3.2 0.00 0.00 0.00 90 1017.2
20260507051535 4 35 1.6 3.2 0.00 0.00 0.00 90 1017.1
20260507051253 4 46 0.0 3.2 0.00 0.00 0.00 90 1017.1
20260507050531 3 56 1.6 3.2 0.00 0.00 0.00 90 1017.1
20260507050026 3 46 1.6 3.2 0.00 0.00 0.00 89 1017.1
20260507045527 3 63 1.6 3.2 0.00 0.00 0.00 89 1017.0
20260507045023 3 35 1.6 3.2 0.00 0.00 0.00 89 1017.1
20260507044519 3 46 1.6 3.2 0.00 0.00 0.00 89 1017.0
20260507044238 3 46 1.6 3.2 0.00 0.00 0.00 89 1017.0
20260507043951 4 63 1.6 3.2 0.00 0.00 0.00 89 1016.9
20260507043453 4 46 3.2 3.2 0.00 0.00 0.00 89 1016.9
20260507042507 4 63 0.0 3.2 0.00 0.00 0.00 89 1016.9
20260507042001 3 314 0.0 1.6 0.00 0.00 0.00 89 1016.9
20260507041503 3 46 0.0 1.6 0.00 0.00 0.00 89 1016.9
20260507040949 3 89 0.0 1.6 0.00 0.00 0.00 89 1016.8
20260507040448 3 223 0.0 1.6 0.00 0.00 0.00 89 1016.9
20260507035944 3 46 0.0 1.6 0.00 0.00 0.00 89 1016.9
20260507035441 3 1 0.0 3.2 0.00 0.00 0.00 89 1016.8
20260507035144 3 89 1.6 3.2 0.00 0.00 0.00 89 1016.9
20260507034421 3 72 1.6 3.2 0.00 0.00 0.00 88 1016.9
20260507033916 3 89 1.6 1.6 0.00 0.00 0.00 88 1017.0
20260507033416 3 46 0.0 1.6 0.00 0.00 0.00 88 1017.0
20260507033136 3 89 0.0 1.6 0.00 0.00 0.00 88 1017.0
20260507032408 3 46 1.6 1.6 0.00 0.00 0.00 88 1017.0
20260507031910 3 46 0.0 1.6 0.00 0.00 0.00 88 1017.1
20260507031405 3 46 0.0 3.2 0.00 0.00 0.00 88 1017.0
20260507030856 3 46 1.6 3.2 0.00 0.00 0.00 88 1017.0
20260507030350 3 89 0.0 3.2 0.00 0.00 0.00 88 1017.1
20260507025846 3 1 0.0 1.6 0.00 0.00 0.00 88 1017.1
20260507025347 3 46 0.0 1.6 0.00 0.00 0.00 87 1017.0
20260507024842 3 46 0.0 1.6 0.00 0.00 0.00 87 1017.1
20260507024342 3 223 0.0 3.2 0.00 0.00 0.00 87 1017.1
20260507023838 3 46 0.0 3.2 0.00 0.00 0.00 87 1017.1
20260507023339 3 89 0.0 1.6 0.00 0.00 0.00 87 1017.2
20260507022830 3 56 0.0 3.2 0.00 0.00 0.00 87 1017.1
20260507022552 3 269 1.6 3.2 0.00 0.00 0.00 87 1017.2
20260507021824 3 46 1.6 3.2 0.00 0.00 0.00 86 1017.2
20260507021322 3 223 0.0 3.2 0.00 0.00 0.00 86 1017.3
20260507021043 3 1 0.0 3.2 0.00 0.00 0.00 86 1017.2
20260507020312 3 46 0.0 3.2 0.00 0.00 0.00 86 1017.3
20260507020034 3 178 1.6 3.2 0.00 0.00 0.00 86 1017.3
20260507015306 3 63 1.6 3.2 0.00 0.00 0.00 86 1017.4
20260507015017 3 89 1.6 4.8 0.00 0.00 0.00 86 1017.3
20260507014254 3 127 1.6 4.8 0.00 0.00 0.00 86 1017.4
20260507013751 3 89 1.6 4.8 0.00 0.00 0.00 87 1017.4
20260507013246 3 135 1.6 4.8 0.00 0.00 0.00 87 1017.5
20260507013011 3 140 1.6 3.2 0.00 0.00 0.00 86 1017.5
20260507012243 3 46 0.0 3.2 0.00 0.00 0.00 86 1017.5
20260507011959 3 63 0.0 3.2 0.00 0.00 0.00 86 1017.5
20260507011233 3 135 1.6 3.2 0.00 0.00 0.00 86 1017.4
20260507010728 3 46 0.0 3.2 0.00 0.00 0.00 86 1017.5
20260507010228 3 46 1.6 3.2 0.00 0.00 0.00 86 1017.5
20260507005725 3 89 0.0 3.2 0.00 0.00 0.00 85 1017.5
20260507005215 3 135 1.6 3.2 0.00 0.00 0.00 85 1017.6
20260507004710 3 28 1.6 3.2 0.00 0.00 0.00 85 1017.6
20260507004212 3 1 0.0 3.2 0.00 0.00 0.00 84 1017.6
20260507003708 3 46 0.0 3.2 0.00 0.00 0.00 84 1017.7
20260507003159 3 46 0.0 3.2 0.00 0.00 0.00 84 1017.8
20260507002658 3 269 0.0 3.2 0.00 0.00 0.00 84 1017.7
20260507002153 3 213 0.0 3.2 0.00 0.00 0.00 84 1017.7
20260507001654 3 89 0.0 3.2 0.00 0.00 0.00 83 1017.8
20260507001150 3 223 0.0 3.2 0.00 0.00 0.00 83 1017.8
20260507000650 3 46 1.6 4.8 0.00 0.00 0.00 82 1017.8
20260507000405 3 206 1.6 4.8 0.00 0.00 0.00 82 1017.9
20260506235636 3 145 0.0 3.2 0.00 0.00 0.00 82 1017.9
20260506235138 3 314 0.0 3.2 0.00 0.00 0.00 81 1017.9
20260506234856 3 89 1.6 3.2 0.00 0.00 0.00 81 1018.0
20260506234133 3 63 0.0 3.2 0.00 0.00 0.00 81 1018.0
20260506233619 3 46 0.0 3.2 0.00 0.00 0.00 81 1018.0
20260506233119 3 135 1.6 3.2 0.00 0.00 0.00 81 1018.0
20260506232615 3 135 1.6 1.6 0.00 0.00 0.00 80 1018.0
20260506232110 4 314 0.0 1.6 0.00 0.00 0.00 80 1018.0
20260506231610 4 46 0.0 3.2 0.00 0.00 0.00 80 1018.0
20260506231106 4 56 0.0 3.2 0.00 0.00 0.00 79 1017.9
20260506230607 4 46 1.6 4.8 0.00 0.00 0.00 79 1018.0
20260506230103 4 240 1.6 4.8 0.00 0.00 0.00 79 1017.9
20260506225558 4 223 1.6 4.8 0.00 0.00 0.00 79 1017.9
20260506225053 3 240 1.6 4.8 0.00 0.00 0.00 79 1018.0
20260506224549 3 178 1.6 3.2 0.00 0.00 0.00 79 1018.0
20260506224530 3 206 1.6 3.2 0.00 0.00 0.00 79 1018.0
20260506223545 4 223 1.6 3.2 0.00 0.00 0.00 79 1018.0
20260506223040 4 269 0.0 3.2 0.00 0.00 0.00 78 1018.0
20260506222536 4 1 1.6 3.2 0.00 0.00 0.00 78 1018.1
20260506222038 4 1 0.0 3.2 0.00 0.00 0.00 77 1018.1
20260506221533 4 314 1.6 3.2 0.00 0.00 0.00 77 1018.1
20260506221029 4 46 1.6 4.8 0.00 0.00 0.00 77 1018.0
20260506220525 5 223 1.6 4.8 0.00 0.00 0.00 76 1018.0
20260506220254 5 218 1.6 4.8 0.00 0.00 0.00 76 1018.0
20260506215520 5 206 0.0 4.8 0.00 0.00 0.00 76 1018.0
20260506215021 5 218 1.6 6.4 0.00 0.00 0.00 76 1018.1
20260506214731 5 223 1.6 6.4 0.00 0.00 0.00 76 1018.0
20260506214013 5 223 1.6 3.2 0.00 0.00 0.00 75 1018.0
20260506213957 5 197 1.6 3.2 0.00 0.00 0.00 75 1018.1
20260506213009 5 253 1.6 3.2 0.00 0.00 0.00 75 1018.0